Tracking 29892 objects as of 21-Nov-2024
HD Live streaming from Space Station
objects crossing your sky now

STARLINK-30338

Track STARLINK-30338 now!
10-day predictions
STARLINK-30338 is classified as:


NORAD ID: 57718
Int'l Code: 2023-129W
Perigee: 565.4 km
Apogee: 567.1 km
Inclination: 43.0 °
Period: 95.8 minutes
Semi major axis: 6937 km
RCS: Unknown
Launch date: August 27, 2023
Source: United States (US)
Launch site: AIR FORCE EASTERN TEST RANGE (AFETR)
Your satellite tracking list
Your tracking list is empty




NASA's NSSDC Master Catalog

Two Line Element Set (TLE):
1 57718U 23129W   24325.88445502  .00001295  00000-0  11089-3 0  9996
2 57718  43.0005 174.6615 0001241 261.8579  98.2122 15.02538315 69370
Source of the keplerian elements: AFSPC